Temp
73 72 72 72 73 72 74 76 75 75 75 76 75 76 75 75 75 74 74 73 73 68 66 67 70 68 74 71 73 74 74 74 74 75 74 74 74 74 74 74 74 73 74 73 73 72 72 73 74 73 73 72 72 68 69 69 70 71 70 70 70 71
72 72 72 73 73 72 74 75 73 73 74 75 75 76 74 71 75 67 74 71 65 68 65 64 65 73 68 71 71 74 74 74 74 74 74 74 74 74 74 73 73 74 73 73 73 66 66 70 74 73 72 71 67 67 69 70 70 70 70 69 70 72
72 73 73 73 72 72 72 72 72 72 73 74 74 74 70 71 66 65 66 65 67 65 64 65 66 70 68 72 70 74 74 74 74 74 74 74 74 73 73 73 73 73 73 73 65 62 63 62 65 73 71 68 66 67 68 68 68 69 68 69 69 73
72 72 72 72 72 71 71 71 70 71 72 71 72 72 68 66 65 64 66 65 65 65 65 63 71 74 73 69 69 73 74 74 74 74 74 72 72 72 73 72 72 73 70 66 64 63 63 63 65 65 66 66 66 66 67 68 68 67 67 69 70 73
73 72 72 72 72 71 71 72 71 70 70 69 70 69 67 64 65 65 65 67 65 66 66 65 65 66 67 66 64 64 66 66 67 65 72 65 66 67 67 65 65 66 64 65 65 63 64 65 66 66 66 66 66 66 67 66 65 65 66 67 69 72
72 72 72 72 72 72 72 71 71 71 69 70 69 68 66 65 65 65 65 66 67 65 66 66 65 65 65 65 64 64 64 65 66 67 68 67 67 66 65 64 64 65 65 64 64 64 65 67 66 66 66 65 65 65 65 65 65 65 65 65 69 72
71 72 72 73 72 72 71 72 72 71 70 69 68 67 65 65 65 65 65 67 67 65 66 65 65 65 65 65 65 64 64 66 67 67 68 67 67 67 65 64 64 65 63 64 65 64 64 66 67 66 66 66 65 65 64 64 63 63 63 65 69 72
72 72 72 72 72 72 71 71 71 72 70 69 68 67 65 65 66 65 66 66 68 66 66 66 66 66 66 65 65 66 66 66 66 66 67 67 66 65 65 65 64 64 65 65 65 65 65 66 66 67 66 65 65 64 63 63 63 62 62 63 65 70
71 71 71 72 71 72 71 71 71 71 70 71 68 67 65 66 66 66 66 67 69 66 67 67 67 67 66 66 66 66 66 66 66 67 67 66 66 66 65 64 64 65 63 64 66 66 66 66 66 66 66 65 64 64 63 62 62 61 61 61 63 68
70 71 71 71 71 71 71 70 70 70 69 70 67 67 65 65 66 66 66 67 68 68 68 67 67 67 67 66 66 66 67 66 66 66 66 67 66 66 66 65 65 65 65 65 66 67 66 66 67 66 66 65 64 64 63 62 61 60 60 61 62 66
70 71 71 70 70 70 70 70 70 70 69 68 68 67 66 66 66 66 67 68 68 69 68 68 68 67 66 66 65 65 66 66 66 66 67 67 66 67 66 66 66 65 65 65 66 67 67 67 66 67 66 66 64 63 62 62 61 61 61 60 60 61
70 70 71 71 70 70 70 70 70 69 68 68 68 66 66 66 67 66 68 68 68 68 69 68 68 67 67 65 65 65 65 65 66 66 67 67 66 67 66 67 67 66 66 66 65 66 66 66 65 66 66 64 64 63 62 61 61 60 60 59 59 59
71 70 70 70 69 69 69 70 70 69 68 69 68 67 66 66 67 67 68 68 68 68 69 68 67 67 68 65 65 65 64 65 65 65 66 67 68 66 67 66 67 67 65 65 65 65 66 65 64 64 65 64 63 62 61 61 60 59 59 58 57 57
71 70 70 70 70 69 69 69 70 69 69 68 67 67 67 67 68 67 67 68 68 69 68 67 67 66 66 65 64 65 65 65 64 65 66 67 66 65 65 66 65 66 67 65 64 63 64 63 62 63 62 62 61 61 60 60 58 58 57 57 56 55
71 70 70 70 70 69 69 69 69 69 69 68 68 67 67 67 67 67 67 67 68 68 68 67 67 66 65 65 64 64 64 65 65 65 66 66 65 65 65 65 65 64 63 63 63 64 63 62 62 61 61 61 60 59 59 58 58 57 56 54 55 53
70 70 70 70 70 70 70 70 70 71 69 68 68 67 67 67 67 67 67 67 68 68 67 67 67 66 65 65 65 64 65 65 66 65 65 66 66 65 65 65 65 65 63 62 63 60 61 60 60 59 59 59 58 59 57 56 57 56 55 56 55 53
69 70 70 70 70 70 70 69 69 70 69 68 67 67 67 67 67 67 67 67 67 68 67 67 66 66 66 65 64 65 65 65 66 65 65 65 65 65 65 65 64 64 65 61 61 60 59 59 58 58 58 57 57 58 57 57 55 55 55 54 52 52
70 70 70 70 69 69 70 70 69 69 70 68 68 68 67 67 67 67 67 67 67 68 67 67 67 66 65 66 65 65 65 65 65 65 65 65 63 64 65 65 62 61 62 62 60 59 58 58 58 57 56 56 55 55 55 55 56 57 53 53 51 52
70 70 70 70 69 69 69 69 68 68 67 67 68 66 67 67 67 67 67 67 67 67 67 67 67 66 65 65 65 65 65 65 65 64 65 64 63 64 64 64 63 60 60 60 61 60 59 58 56 56 55 54 54 53 54 55 54 53 52 52 53 55
70 70 70 69 69 68 68 67 66 65 65 66 66 66 66 67 67 66 67 67 67 66 67 67 67 66 66 66 65 64 65 65 64 65 64 64 62 62 63 62 61 61 59 60 59 59 59 58 56 55 56 54 53 52 53 53 52 52 53 52 54 52
69 70 69 68 68 68 67 65 65 65 65 64 65 66 66 66 66 67 67 67 67 66 66 67 67 66 65 67 66 64 64 64 64 65 64 63 62 61 62 62 61 61 60 58 57 57 57 60 58 54 54 53 53 53 54 52 51 51 51 51 51 52
69 69 69 69 69 68 68 67 66 65 63 64 65 66 66 66 66 66 67 67 67 66 66 66 67 66 67 66 65 64 64 64 63 63 63 62 62 63 62 61 61 58 59 59 57 57 58 58 53 53 52 51 52 52 53 50 51 51 51 51 51 51
69 69 69 70 69 68 67 67 66 64 65 63 64 65 67 67 66 66 66 66 66 66 66 66 66 66 67 66 65 64 64 63 63 64 62 61 61 60 60 60 61 60 57 56 57 57 56 52 52 50 50 51 48 48 52 51 52 52 52 52 51 51
69 69 69 70 70 68 67 66 67 66 65 65 64 64 65 65 65 65 65 65 65 66 66 66 66 66 66 65 64 64 63 62 63 63 63 61 60 59 59 59 59 60 60 57 54 57 57 53 53 57 52 48 46 44 47 48 47 52 49 50 51 51
69 69 69 69 69 67 67 65 65 65 65 64 64 65 65 65 65 66 65 64 65 65 65 65 65 65 66 64 64 63 63 62 62 61 62 61 60 60 60 60 60 59 59 59 54 53 56 54 57 56 54 48 47 49 45 43 47 50 50 54 53 52
69 69 69 69 68 68 67 65 64 64 62 62 62 63 64 64 64 64 64 65 64 65 65 64 64 65 65 64 63 63 63 63 62 61 61 60 60 58 59 59 60 61 58 57 60 56 54 55 57 55 55 52 52 46 47 46 47 47 52 50 47 50
69 69 69 68 68 68 66 66 66 65 65 64 63 64 66 66 66 65 64 64 64 63 64 64 63 63 63 64 63 63 62 62 62 60 61 59 59 59 59 60 60 59 59 59 57 56 56 54 54 55 55 53 53 51 52 52 47 44 48 47 50 48
69 69 69 68 68 69 67 66 66 66 65 64 64 63 64 65 65 64 63 63 63 62 62 63 62 62 63 63 63 62 61 61 61 60 60 59 58 57 58 59 60 58 58 59 58 58 55 53 55 55 54 51 52 51 50 46 49 51 47 48 47 51
69 68 68 68 68 68 68 67 67 66 65 65 64 63 64 65 64 64 62 61 62 61 61 61 62 62 62 63 64 62 61 60 60 60 60 57 57 57 57 58 57 57 57 56 57 57 56 54 54 53 50 48 50 49 48 48 49 47 43 44 45 46
68 68 68 67 68 68 68 67 66 65 65 63 63 63 64 64 63 62 61 61 60 60 60 60 60 61 61 62 62 62 61 61 59 60 60 57 58 57 56 56 57 58 57 57 55 56 57 54 55 52 54 51 49 48 49 51 50 44 46 44 48 48
67 68 67 67 68 67 67 67 66 65 65 64 63 63 63 63 62 61 61 59 59 59 59 59 59 60 60 61 61 62 61 60 60 61 59 57 58 58 56 55 55 56 57 56 53 54 53 52 52 51 50 53 53 54 52 49 49 47 44 43 44 46
66 67 67 67 67 67 67 66 66 66 65 65 64 63 63 63 63 62 61 59 58 58 58 58 58 58 58 59 60 60 61 60 59 57 57 57 57 57 56 54 53 54 54 52 52 54 51 50 49 49 48 49 50 51 47 48 50 50 50 44 49 45
66 66 66 67 67 67 66 66 66 66 66 65 64 64 64 63 63 62 61 59 58 58 57 57 57 58 57 58 59 59 59 58 57 57 57 56 56 56 55 55 54 53 51 52 52 52 51 50 50 51 49 47 47 48 48 46 47 47 45 46 48 42
66 66 66 66 67 66 66 66 66 66 66 65 65 65 64 64 63 63 62 60 60 59 58 59 58 58 58 58 58 59 60 58 58 57 57 57 56 55 55 55 54 52 51 50 50 50 50 48 47 47 48 48 46 47 45 46 46 46 46 48 46 50
65 66 66 66 66 66 66 66 66 66 66 65 65 65 64 64 64 62 61 61 60 59 59 58 58 57 58 58 58 58 57 56 56 56 57 56 56 55 55 55 54 52 51 50 50 50 49 49 49 48 46 47 48 46 45 44 45 45 46 49 48 46
66 66 66 66 66 66 66 66 65 65 65 65 65 65 64 64 64 63 62 60 58 58 59 58 57 57 57 58 57 57 57 55 55 56 56 56 55 54 53 52 51 52 51 52 50 49 48 49 48 47 47 46 48 45 45 45 45 44 43 44 44 43
66 66 66 66 66 66 66 65 65 65 65 65 65 64 64 63 62 62 61 60 59 59 58 58 58 58 57 56 57 57 56 55 55 56 56 55 54 52 51 52 52 52 51 49 50 49 48 48 47 46 46 46 47 45 45 45 45 46 45 43 43 43
MSLP
1014.84 1015.00 1015.12 1015.24 1015.28 1015.36 1015.40 1015.52 1015.68 1015.80 1015.88 1016.04 1016.16 1016.28 1016.48 1016.64 1016.76 1016.88 1016.96 1017.08 1017.16 1017.28 1017.40 1017.48 1017.56 1017.72 1017.76 1017.88 1017.96 1018.08 1018.20 1018.28 1018.40 1018.40 1018.44 1018.48 1018.52 1018.60 1018.68 1018.76 1018.84 1018.88 1018.92 1018.96 1019.04 1019.16 1019.24 1019.24 1019.24 1019.28 1019.28 1019.36 1019.48 1019.68 1019.80 1019.84 1019.88 1019.92 1019.96 1019.96 1019.92 1019.92
1014.84 1015.00 1015.12 1015.24 1015.32 1015.36 1015.40 1015.48 1015.68 1015.80 1015.92 1016.04 1016.20 1016.36 1016.56 1016.76 1016.84 1016.96 1017.00 1017.12 1017.32 1017.36 1017.48 1017.60 1017.68 1017.68 1017.80 1017.92 1017.96 1018.08 1018.16 1018.28 1018.40 1018.44 1018.48 1018.52 1018.56 1018.60 1018.68 1018.72 1018.80 1018.88 1018.96 1019.00 1019.08 1019.28 1019.40 1019.32 1019.32 1019.40 1019.48 1019.56 1019.72 1019.92 1020.00 1020.04 1020.12 1020.16 1020.20 1020.16 1020.12 1020.04
1014.72 1014.88 1015.12 1015.28 1015.36 1015.40 1015.40 1015.48 1015.68 1015.80 1015.92 1016.08 1016.24 1016.44 1016.68 1016.84 1016.96 1017.00 1017.08 1017.20 1017.28 1017.40 1017.48 1017.60 1017.68 1017.68 1017.84 1017.92 1018.00 1018.04 1018.16 1018.28 1018.36 1018.44 1018.48 1018.52 1018.56 1018.60 1018.64 1018.72 1018.80 1018.88 1018.96 1019.04 1019.20 1019.36 1019.48 1019.48 1019.56 1019.56 1019.68 1019.80 1020.00 1020.12 1020.20 1020.24 1020.32 1020.36 1020.44 1020.36 1020.28 1020.16
1014.60 1014.84 1015.08 1015.24 1015.36 1015.40 1015.44 1015.52 1015.68 1015.80 1015.96 1016.12 1016.28 1016.52 1016.76 1016.92 1016.96 1017.04 1017.12 1017.20 1017.28 1017.40 1017.48 1017.64 1017.68 1017.68 1017.80 1017.92 1018.00 1018.00 1018.08 1018.24 1018.36 1018.40 1018.44 1018.52 1018.56 1018.64 1018.68 1018.72 1018.80 1018.84 1018.96 1019.12 1019.28 1019.40 1019.52 1019.56 1019.76 1019.88 1019.96 1020.08 1020.20 1020.32 1020.40 1020.44 1020.56 1020.64 1020.60 1020.56 1020.48 1020.36
1014.44 1014.72 1014.96 1015.16 1015.32 1015.40 1015.44 1015.52 1015.68 1015.84 1015.96 1016.16 1016.36 1016.56 1016.80 1016.96 1017.00 1017.08 1017.16 1017.20 1017.32 1017.40 1017.56 1017.72 1017.76 1017.80 1017.88 1018.00 1018.08 1018.12 1018.16 1018.32 1018.40 1018.52 1018.44 1018.68 1018.72 1018.76 1018.80 1018.84 1018.88 1018.88 1019.00 1019.08 1019.24 1019.44 1019.52 1019.72 1019.88 1020.04 1020.20 1020.32 1020.40 1020.48 1020.56 1020.68 1020.80 1020.84 1020.88 1020.84 1020.72 1020.64
1014.32 1014.56 1014.76 1014.96 1015.12 1015.24 1015.36 1015.56 1015.68 1015.80 1016.00 1016.20 1016.40 1016.64 1016.84 1016.92 1017.00 1017.08 1017.16 1017.28 1017.36 1017.48 1017.64 1017.76 1017.88 1017.96 1018.04 1018.08 1018.20 1018.28 1018.36 1018.44 1018.56 1018.64 1018.56 1018.72 1018.80 1018.80 1018.84 1018.88 1018.88 1018.92 1018.92 1019.00 1019.20 1019.40 1019.48 1019.68 1020.00 1020.16 1020.36 1020.52 1020.64 1020.72 1020.80 1020.92 1020.96 1021.04 1021.08 1021.04 1020.96 1020.84
1014.20 1014.40 1014.64 1014.80 1015.00 1015.16 1015.32 1015.40 1015.52 1015.68 1016.00 1016.28 1016.44 1016.68 1016.80 1016.84 1016.96 1017.04 1017.16 1017.28 1017.48 1017.60 1017.68 1017.80 1017.92 1018.00 1018.08 1018.12 1018.24 1018.32 1018.40 1018.48 1018.60 1018.68 1018.64 1018.76 1018.84 1018.80 1018.84 1018.92 1018.96 1018.96 1018.92 1019.00 1019.24 1019.40 1019.52 1019.76 1019.92 1020.20 1020.48 1020.68 1020.84 1020.92 1021.00 1021.12 1021.20 1021.28 1021.28 1021.24 1021.16 1021.04
1014.00 1014.20 1014.48 1014.68 1014.92 1015.12 1015.24 1015.36 1015.52 1015.72 1015.96 1016.20 1016.44 1016.64 1016.64 1016.72 1016.84 1017.00 1017.08 1017.24 1017.28 1017.48 1017.64 1017.84 1017.88 1017.92 1018.00 1018.08 1018.16 1018.20 1018.32 1018.48 1018.60 1018.68 1018.64 1018.72 1018.80 1018.80 1018.84 1018.88 1018.96 1018.96 1018.96 1019.04 1019.32 1019.44 1019.60 1019.80 1020.04 1020.20 1020.60 1020.88 1021.00 1021.08 1021.20 1021.32 1021.44 1021.52 1021.52 1021.48 1021.36 1021.28
1013.80 1014.04 1014.24 1014.44 1014.84 1014.96 1015.12 1015.32 1015.56 1015.76 1015.96 1016.12 1016.36 1016.40 1016.44 1016.60 1016.84 1016.88 1016.96 1017.12 1017.20 1017.48 1017.56 1017.68 1017.80 1017.80 1017.92 1018.08 1018.04 1018.12 1018.24 1018.40 1018.52 1018.60 1018.64 1018.72 1018.76 1018.80 1018.84 1018.88 1018.96 1018.96 1018.96 1019.16 1019.32 1019.56 1019.72 1019.96 1020.16 1020.40 1020.64 1021.00 1021.16 1021.28 1021.40 1021.52 1021.64 1021.72 1021.76 1021.68 1021.60 1021.48
1013.56 1013.80 1014.08 1014.36 1014.68 1014.92 1015.08 1015.36 1015.56 1015.72 1015.88 1016.00 1016.20 1016.24 1016.40 1016.64 1016.68 1016.80 1016.96 1017.00 1017.08 1017.24 1017.40 1017.52 1017.64 1017.72 1017.88 1018.00 1018.00 1018.08 1018.20 1018.28 1018.40 1018.44 1018.56 1018.72 1018.68 1018.72 1018.80 1018.88 1018.96 1019.00 1019.08 1019.24 1019.44 1019.64 1019.80 1020.12 1020.32 1020.56 1020.80 1021.08 1021.28 1021.40 1021.56 1021.68 1021.84 1021.92 1021.92 1021.88 1021.76 1021.68
1013.40 1013.60 1013.88 1014.28 1014.52 1014.80 1014.96 1015.24 1015.44 1015.64 1015.84 1015.96 1016.00 1016.12 1016.36 1016.56 1016.64 1016.68 1016.76 1016.88 1017.00 1017.12 1017.24 1017.36 1017.48 1017.60 1017.76 1017.88 1017.96 1018.04 1018.16 1018.20 1018.32 1018.36 1018.44 1018.56 1018.52 1018.60 1018.72 1018.84 1019.00 1019.08 1019.24 1019.28 1019.56 1019.72 1019.92 1020.24 1020.48 1020.72 1020.92 1021.12 1021.44 1021.56 1021.72 1021.80 1021.92 1022.04 1022.12 1022.08 1022.00 1022.00
1013.20 1013.44 1013.76 1014.12 1014.36 1014.68 1014.88 1015.08 1015.36 1015.60 1015.76 1015.80 1015.84 1016.04 1016.24 1016.44 1016.48 1016.52 1016.60 1016.80 1016.92 1017.08 1017.20 1017.32 1017.36 1017.48 1017.64 1017.80 1017.96 1018.04 1018.12 1018.20 1018.24 1018.24 1018.32 1018.44 1018.52 1018.56 1018.72 1018.92 1019.00 1019.12 1019.28 1019.36 1019.68 1019.92 1020.04 1020.28 1020.64 1020.92 1021.08 1021.36 1021.56 1021.72 1021.88 1021.96 1022.12 1022.24 1022.28 1022.28 1022.32 1022.32
1013.04 1013.36 1013.64 1013.96 1014.24 1014.44 1014.68 1014.96 1015.28 1015.52 1015.60 1015.64 1015.76 1015.88 1016.12 1016.28 1016.36 1016.40 1016.52 1016.68 1016.84 1016.96 1017.08 1017.24 1017.32 1017.40 1017.56 1017.72 1017.88 1018.04 1018.12 1018.16 1018.16 1018.20 1018.28 1018.36 1018.48 1018.60 1018.80 1019.00 1019.16 1019.24 1019.44 1019.60 1019.84 1020.16 1020.28 1020.48 1020.84 1021.12 1021.24 1021.52 1021.64 1021.88 1022.00 1022.12 1022.28 1022.36 1022.48 1022.52 1022.56 1022.56
1013.00 1013.32 1013.56 1013.80 1014.04 1014.32 1014.52 1014.80 1015.04 1015.24 1015.40 1015.48 1015.60 1015.76 1015.96 1016.16 1016.28 1016.36 1016.44 1016.60 1016.72 1016.84 1017.00 1017.12 1017.20 1017.44 1017.56 1017.76 1017.88 1018.00 1018.08 1018.16 1018.20 1018.24 1018.24 1018.36 1018.52 1018.64 1018.92 1019.12 1019.44 1019.52 1019.72 1019.84 1020.16 1020.40 1020.52 1020.92 1021.16 1021.32 1021.48 1021.68 1021.80 1021.96 1022.08 1022.20 1022.40 1022.60 1022.72 1022.76 1022.76 1022.80
1012.76 1013.20 1013.44 1013.68 1013.88 1014.08 1014.28 1014.60 1014.88 1015.08 1015.24 1015.32 1015.52 1015.68 1015.84 1016.08 1016.24 1016.32 1016.44 1016.56 1016.64 1016.76 1016.92 1017.04 1017.12 1017.32 1017.56 1017.68 1017.88 1018.00 1018.12 1018.12 1018.20 1018.24 1018.24 1018.40 1018.56 1018.80 1018.96 1019.32 1019.52 1019.84 1020.04 1020.16 1020.32 1020.64 1020.76 1021.04 1021.32 1021.60 1021.76 1021.84 1022.00 1022.12 1022.20 1022.44 1022.60 1022.76 1022.84 1022.88 1022.88 1022.92
1012.56 1013.00 1013.28 1013.48 1013.68 1013.88 1014.12 1014.40 1014.68 1014.84 1015.00 1015.20 1015.40 1015.56 1015.72 1015.92 1016.08 1016.24 1016.40 1016.56 1016.60 1016.68 1016.84 1016.92 1017.08 1017.28 1017.52 1017.68 1017.84 1017.96 1018.04 1018.08 1018.20 1018.24 1018.36 1018.52 1018.68 1018.96 1019.20 1019.44 1019.60 1019.68 1020.24 1020.60 1020.60 1021.00 1021.08 1021.32 1021.56 1021.76 1021.96 1022.08 1022.20 1022.28 1022.44 1022.60 1022.76 1022.88 1022.96 1022.96 1023.00 1023.04
1012.44 1012.72 1013.04 1013.32 1013.52 1013.76 1014.00 1014.36 1014.56 1014.68 1014.80 1015.08 1015.32 1015.44 1015.60 1015.80 1016.04 1016.24 1016.36 1016.48 1016.48 1016.60 1016.80 1016.92 1017.08 1017.24 1017.44 1017.64 1017.80 1017.92 1017.96 1018.08 1018.12 1018.24 1018.44 1018.64 1018.88 1019.04 1019.24 1019.60 1019.92 1019.92 1019.84 1020.60 1020.84 1021.16 1021.40 1021.56 1021.76 1022.00 1022.12 1022.24 1022.36 1022.40 1022.56 1022.72 1022.88 1022.96 1023.04 1023.04 1023.08 1023.16
1012.16 1012.44 1012.72 1013.08 1013.36 1013.64 1013.92 1014.20 1014.44 1014.56 1014.68 1015.00 1015.16 1015.28 1015.48 1015.76 1016.00 1016.12 1016.28 1016.36 1016.40 1016.52 1016.76 1016.92 1017.04 1017.16 1017.36 1017.52 1017.68 1017.80 1017.92 1018.08 1018.12 1018.28 1018.60 1018.88 1019.08 1019.16 1019.24 1019.44 1020.04 1020.28 1020.28 1020.40 1020.96 1021.16 1021.56 1021.76 1021.96 1022.20 1022.36 1022.48 1022.60 1022.68 1022.80 1022.88 1022.96 1023.04 1023.04 1023.12 1023.16 1023.20
1012.00 1012.32 1012.64 1012.92 1013.24 1013.56 1013.88 1014.16 1014.32 1014.52 1014.76 1014.96 1015.08 1015.24 1015.40 1015.68 1015.84 1016.00 1016.12 1016.16 1016.32 1016.48 1016.68 1016.84 1016.92 1017.08 1017.32 1017.52 1017.72 1017.84 1018.00 1018.08 1018.16 1018.40 1018.72 1018.96 1019.24 1019.40 1019.48 1019.60 1019.88 1020.52 1020.68 1020.68 1020.76 1021.12 1021.44 1021.88 1022.28 1022.56 1022.68 1022.84 1022.84 1022.92 1023.00 1023.00 1023.08 1023.12 1023.12 1023.16 1023.16 1023.24
1011.72 1011.96 1012.36 1012.80 1013.16 1013.60 1013.96 1014.32 1014.64 1014.76 1014.96 1015.08 1015.16 1015.36 1015.48 1015.56 1015.68 1015.88 1015.96 1016.12 1016.28 1016.48 1016.64 1016.76 1016.84 1017.00 1017.20 1017.44 1017.68 1017.84 1018.04 1018.08 1018.24 1018.44 1018.72 1019.04 1019.40 1019.48 1019.64 1019.96 1020.20 1020.36 1020.84 1021.12 1021.32 1021.40 1021.56 1021.84 1022.44 1022.72 1022.88 1023.04 1023.16 1023.16 1023.12 1023.16 1023.12 1023.12 1023.16 1023.16 1023.20 1023.28
1011.52 1011.72 1012.16 1012.68 1013.04 1013.40 1013.92 1014.36 1014.56 1014.72 1014.88 1015.08 1015.24 1015.36 1015.56 1015.60 1015.68 1015.72 1015.88 1016.04 1016.24 1016.40 1016.56 1016.72 1016.80 1016.96 1017.20 1017.36 1017.64 1017.84 1018.04 1018.20 1018.28 1018.44 1018.64 1018.96 1019.20 1019.48 1019.60 1019.80 1020.28 1020.44 1020.64 1021.20 1021.64 1021.64 1021.68 1021.48 1021.92 1022.84 1023.08 1023.12 1023.16 1023.24 1023.20 1023.16 1023.12 1023.16 1023.16 1023.24 1023.28 1023.28
1011.40 1011.64 1011.80 1011.96 1012.44 1012.96 1013.24 1013.60 1014.00 1014.40 1014.64 1015.04 1015.28 1015.48 1015.64 1015.64 1015.68 1015.76 1015.88 1016.04 1016.16 1016.36 1016.48 1016.60 1016.72 1016.88 1017.08 1017.32 1017.64 1017.84 1018.04 1018.20 1018.36 1018.52 1018.72 1019.00 1019.24 1019.44 1019.72 1020.00 1020.20 1020.72 1020.80 1020.88 1021.32 1021.56 1021.56 1021.44 1022.32 1022.44 1022.92 1023.32 1023.32 1023.24 1023.24 1023.28 1023.24 1023.24 1023.24 1023.28 1023.32 1023.28
1011.08 1011.28 1011.44 1011.56 1011.96 1012.52 1012.92 1013.28 1013.68 1014.20 1014.48 1015.04 1015.04 1015.08 1015.24 1015.40 1015.56 1015.80 1015.92 1016.00 1016.12 1016.28 1016.44 1016.52 1016.60 1016.76 1017.00 1017.24 1017.44 1017.72 1017.96 1018.16 1018.36 1018.48 1018.84 1019.16 1019.28 1019.56 1019.72 1019.92 1020.04 1020.24 1021.00 1021.12 1021.32 1021.52 1021.52 1021.52 1021.84 1022.68 1022.76 1022.96 1023.52 1023.56 1023.40 1023.28 1023.32 1023.36 1023.40 1023.40 1023.40 1023.36
1010.88 1011.00 1011.28 1011.36 1011.56 1012.00 1012.52 1013.04 1013.44 1013.88 1014.40 1014.64 1015.04 1015.20 1015.32 1015.44 1015.60 1015.84 1016.08 1016.08 1016.16 1016.24 1016.32 1016.44 1016.56 1016.72 1016.92 1017.12 1017.28 1017.60 1017.88 1018.12 1018.24 1018.32 1018.56 1019.00 1019.32 1019.56 1019.80 1020.04 1020.16 1020.24 1020.32 1021.20 1021.48 1021.64 1021.52 1021.52 1021.64 1022.00 1022.68 1022.72 1023.36 1023.24 1023.32 1023.40 1023.48 1023.40 1023.48 1023.36 1023.32 1023.28
1010.52 1010.76 1011.04 1011.28 1011.52 1011.88 1012.48 1013.16 1013.68 1014.16 1014.40 1014.84 1015.12 1015.32 1015.56 1015.80 1015.76 1015.84 1016.04 1016.24 1016.24 1016.20 1016.28 1016.40 1016.52 1016.68 1016.88 1017.08 1017.24 1017.52 1017.80 1018.04 1018.16 1018.36 1018.56 1018.88 1019.20 1019.40 1019.60 1019.76 1019.96 1020.24 1020.28 1020.48 1021.28 1021.36 1021.52 1021.48 1021.44 1021.20 1021.48 1022.92 1023.32 1023.24 1022.84 1023.00 1023.40 1023.40 1023.40 1023.32 1023.24 1023.24
1010.28 1010.60 1010.88 1011.12 1011.36 1011.68 1012.16 1012.80 1013.64 1014.28 1014.88 1015.04 1015.44 1015.48 1015.52 1015.68 1015.92 1016.04 1016.12 1016.08 1016.16 1016.16 1016.24 1016.36 1016.48 1016.64 1016.84 1017.04 1017.32 1017.56 1017.76 1018.00 1018.24 1018.44 1018.60 1018.84 1019.12 1019.44 1019.68 1019.88 1019.88 1019.88 1020.20 1020.28 1020.36 1021.08 1021.28 1021.40 1021.24 1021.32 1021.44 1021.36 1021.32 1021.68 1022.28 1023.16 1023.00 1023.28 1023.36 1023.44 1023.36 1023.24
1009.96 1010.32 1010.60 1010.92 1011.16 1011.48 1012.08 1012.48 1012.92 1013.44 1013.88 1014.40 1014.96 1015.24 1015.20 1015.36 1015.64 1015.84 1015.92 1016.12 1016.12 1016.16 1016.24 1016.32 1016.52 1016.64 1016.84 1017.04 1017.32 1017.56 1017.76 1017.96 1018.20 1018.40 1018.60 1018.84 1019.12 1019.24 1019.48 1019.60 1019.80 1019.96 1019.96 1020.16 1020.48 1020.76 1020.96 1021.12 1021.40 1021.40 1021.40 1021.48 1021.36 1021.40 1021.60 1022.44 1022.88 1023.52 1023.60 1023.36 1023.24 1023.24
1009.76 1010.12 1010.36 1010.64 1010.92 1011.04 1011.64 1012.16 1012.76 1013.24 1013.64 1014.08 1014.44 1014.96 1015.20 1015.40 1015.52 1015.72 1015.96 1016.12 1016.16 1016.24 1016.28 1016.32 1016.48 1016.68 1016.84 1017.04 1017.24 1017.48 1017.68 1017.92 1018.16 1018.32 1018.44 1018.60 1018.88 1019.16 1019.36 1019.56 1019.68 1019.84 1020.00 1020.04 1020.16 1020.36 1020.80 1021.04 1020.96 1021.12 1021.28 1021.36 1021.44 1021.76 1021.80 1021.76 1021.68 1021.72 1022.28 1023.00 1023.28 1023.36
1009.76 1010.00 1010.28 1010.44 1010.68 1010.92 1011.20 1011.76 1012.28 1012.92 1013.56 1013.80 1014.16 1014.64 1014.96 1015.20 1015.52 1015.72 1016.00 1016.12 1016.24 1016.36 1016.40 1016.44 1016.52 1016.64 1016.80 1016.92 1017.12 1017.32 1017.56 1017.84 1018.08 1018.32 1018.40 1018.64 1018.88 1019.00 1019.04 1019.32 1019.64 1019.84 1019.96 1020.08 1020.12 1020.20 1020.44 1020.76 1020.88 1020.80 1021.16 1021.52 1021.60 1021.80 1021.88 1022.00 1022.08 1022.04 1022.08 1022.60 1023.12 1023.28
1009.68 1009.84 1010.04 1010.32 1010.48 1010.92 1011.20 1011.60 1012.20 1012.64 1013.20 1013.84 1014.16 1014.64 1014.84 1015.20 1015.48 1015.72 1015.96 1016.16 1016.32 1016.44 1016.56 1016.64 1016.68 1016.76 1016.88 1016.96 1017.08 1017.24 1017.52 1017.72 1017.96 1018.12 1018.32 1018.68 1019.00 1019.16 1019.12 1019.04 1019.24 1019.44 1019.68 1019.88 1020.12 1020.24 1020.20 1020.40 1020.56 1020.64 1020.64 1021.00 1021.32 1021.84 1021.84 1021.92 1022.04 1022.08 1022.36 1022.28 1022.16 1022.88
1009.52 1009.68 1009.92 1010.16 1010.36 1010.80 1011.16 1011.48 1011.88 1012.40 1012.88 1013.48 1013.96 1014.40 1014.92 1015.20 1015.44 1015.76 1015.96 1016.20 1016.36 1016.52 1016.60 1016.68 1016.80 1016.92 1016.88 1017.04 1017.16 1017.28 1017.52 1017.72 1017.88 1018.08 1018.20 1018.44 1018.72 1019.08 1019.20 1019.00 1019.12 1019.32 1019.52 1019.68 1020.00 1020.20 1020.40 1020.52 1020.60 1020.60 1020.72 1020.76 1020.88 1021.04 1021.08 1021.32 1021.48 1021.72 1021.64 1022.04 1022.44 1022.84
1009.64 1009.68 1009.92 1010.04 1010.28 1010.64 1011.00 1011.44 1011.72 1012.16 1012.64 1013.04 1013.52 1014.08 1014.48 1014.92 1015.20 1015.48 1015.80 1016.12 1016.36 1016.56 1016.72 1016.80 1016.88 1016.96 1017.12 1017.16 1017.24 1017.48 1017.60 1017.80 1018.04 1018.32 1018.48 1018.64 1018.88 1019.20 1019.32 1019.28 1019.16 1019.24 1019.48 1019.80 1020.00 1020.16 1020.32 1020.48 1020.60 1020.64 1020.68 1020.84 1020.84 1021.00 1021.04 1020.88 1021.08 1021.32 1021.36 1021.60 1021.60 1022.28
1009.52 1009.56 1009.76 1009.88 1010.12 1010.40 1010.88 1011.28 1011.60 1011.96 1012.40 1012.80 1013.24 1013.64 1014.08 1014.56 1014.88 1015.20 1015.56 1015.96 1016.24 1016.40 1016.64 1016.80 1016.92 1017.00 1017.16 1017.20 1017.28 1017.56 1017.72 1017.92 1018.20 1018.40 1018.52 1018.68 1018.80 1019.00 1019.16 1019.36 1019.28 1019.28 1019.52 1019.68 1019.88 1020.04 1020.20 1020.28 1020.36 1020.36 1020.60 1021.16 1021.08 1021.08 1020.92 1021.28 1021.28 1021.32 1021.68 1021.80 1021.72 1022.48
1009.20 1009.36 1009.60 1009.84 1010.00 1010.36 1010.68 1011.04 1011.40 1011.76 1012.16 1012.60 1013.04 1013.36 1013.76 1014.16 1014.56 1014.84 1015.16 1015.48 1015.68 1015.88 1016.20 1016.32 1016.64 1016.80 1017.00 1017.16 1017.32 1017.44 1017.68 1017.92 1018.12 1018.36 1018.52 1018.60 1018.72 1019.00 1019.24 1019.24 1019.40 1019.36 1019.52 1019.88 1020.12 1020.16 1020.24 1020.56 1020.72 1020.80 1021.04 1020.96 1021.16 1021.12 1021.28 1021.56 1021.36 1021.44 1021.44 1021.76 1021.88 1021.88
1009.12 1009.32 1009.36 1009.52 1009.80 1010.20 1010.60 1010.96 1011.24 1011.56 1011.92 1012.36 1012.80 1013.16 1013.52 1013.80 1014.24 1014.64 1015.00 1015.28 1015.48 1015.68 1015.92 1016.28 1016.44 1016.72 1016.96 1017.12 1017.32 1017.56 1017.80 1018.00 1018.24 1018.36 1018.56 1018.84 1019.12 1019.12 1019.16 1019.24 1019.44 1019.52 1019.72 1020.04 1020.24 1020.36 1020.56 1020.56 1020.72 1021.04 1021.20 1021.04 1021.28 1021.48 1021.48 1021.68 1021.68 1021.48 1021.72 1021.36 1021.40 1021.92
1008.36 1008.68 1008.96 1009.32 1009.64 1009.92 1010.36 1010.72 1011.12 1011.48 1011.80 1012.16 1012.56 1012.96 1013.40 1013.72 1014.04 1014.24 1014.64 1015.04 1015.48 1015.72 1015.88 1016.16 1016.48 1016.68 1016.96 1017.08 1017.36 1017.64 1017.88 1018.16 1018.32 1018.44 1018.48 1018.56 1019.00 1019.16 1019.12 1019.20 1019.56 1019.72 1019.84 1020.16 1020.24 1020.44 1020.72 1020.80 1020.92 1021.12 1021.20 1021.52 1021.28 1021.48 1021.72 1021.72 1021.76 1021.72 1021.76 1021.76 1021.72 1022.12
1008.36 1008.60 1008.72 1008.92 1009.32 1009.76 1010.16 1010.64 1011.00 1011.28 1011.68 1012.08 1012.40 1012.76 1013.16 1013.60 1013.92 1014.28 1014.64 1015.08 1015.36 1015.60 1015.92 1016.16 1016.40 1016.64 1016.92 1017.20 1017.40 1017.60 1017.88 1018.16 1018.28 1018.36 1018.60 1018.76 1019.00 1019.20 1019.24 1019.32 1019.60 1019.84 1020.04 1020.32 1020.36 1020.52 1020.84 1020.88 1021.16 1021.32 1021.40 1021.36 1021.32 1021.60 1021.72 1021.88 1021.88 1021.84 1021.92 1022.08 1022.08 1022.04
Wind_Speed
8 8 7 7 6 7 10 16 14 15 16 15 14 13 12 12 10 9 8 8 8 3 3 3 5 3 8 4 8 8 8 7 6 6 4 3 2 1 2 3 4 4 5 5 5 7 8 7 7 8 12 13 13 7 5 5 6 6 5 5 5 6
8 9 8 6 5 6 7 12 7 8 8 10 11 11 8 4 7 3 8 6 3 2 2 2 3 7 3 4 5 8 8 8 7 6 4 3 2 1 1 2 3 4 4 4 5 4 4 6 7 11 11 12 7 5 5 5 6 5 5 5 5 9
9 9 9 7 6 6 7 6 7 6 6 8 7 7 3 4 3 3 3 3 3 3 3 2 3 4 3 7 4 8 8 7 7 5 4 3 2 2 2 3 4 4 3 3 2 3 3 3 5 11 9 7 6 5 5 6 6 5 6 5 5 13
11 10 9 7 6 6 5 6 5 6 5 5 5 4 4 3 3 3 3 4 4 3 3 2 6 9 8 4 5 7 8 7 6 5 5 2 2 2 3 3 4 5 3 2 1 2 4 3 6 5 5 5 5 5 6 6 6 5 5 6 6 14
11 10 9 8 8 7 6 6 6 5 5 5 4 4 4 3 3 3 3 4 3 3 3 3 2 2 4 3 3 2 2 2 1 1 3 1 0 2 2 2 2 3 2 1 0 1 3 5 5 5 5 5 6 6 6 6 5 5 5 5 7 14
11 10 9 8 8 7 8 7 7 6 6 5 4 5 4 4 4 4 3 3 3 2 3 3 3 2 3 3 3 2 2 2 2 2 1 1 2 2 2 2 2 3 3 1 0 2 2 5 6 5 6 6 6 6 6 5 5 5 5 5 7 15
10 10 10 9 7 6 7 7 6 6 6 6 4 5 5 5 5 4 3 3 4 4 3 3 3 2 3 4 4 3 3 3 3 2 3 2 3 3 3 2 2 3 3 2 0 2 3 5 6 7 6 6 6 6 6 5 5 5 5 5 7 15
11 11 10 10 8 7 6 7 7 8 7 7 6 5 5 5 5 5 4 5 4 5 4 4 4 4 4 3 4 4 3 3 3 3 3 3 3 3 3 2 2 3 3 1 2 4 5 6 6 6 7 6 6 6 6 5 5 5 5 5 5 12
12 13 10 9 9 7 7 6 7 7 6 8 6 6 6 5 5 5 5 5 4 5 4 4 5 5 4 4 4 4 4 4 3 4 3 3 3 3 3 2 2 1 0 3 5 5 6 6 6 6 7 7 6 6 6 6 5 5 4 5 5 10
13 12 11 9 8 8 7 7 7 7 6 7 6 6 4 5 5 5 5 5 5 5 5 5 5 4 5 4 3 3 3 3 4 3 4 4 4 3 3 2 2 2 2 4 6 5 6 6 6 6 6 7 6 6 5 6 5 5 4 5 5 7
12 12 11 11 9 8 8 7 8 6 5 6 6 5 5 5 5 5 5 6 5 5 5 5 5 5 4 4 3 2 2 2 3 3 3 4 3 3 2 3 2 3 3 4 6 5 6 6 6 6 6 7 6 6 6 5 5 5 5 5 6 5
12 12 12 11 10 8 8 8 7 6 6 6 5 5 5 5 5 5 5 5 5 5 4 5 5 5 5 4 3 3 2 2 3 2 3 2 3 2 2 3 4 4 3 5 6 5 5 7 6 6 6 7 6 6 5 5 5 5 4 5 5 5
12 12 12 11 9 8 8 7 7 7 6 6 6 5 6 5 5 5 4 5 5 6 5 6 5 5 4 3 3 3 2 3 2 1 2 3 1 2 4 4 4 4 5 6 7 6 6 6 7 6 6 6 6 6 5 5 5 5 5 4 4 4
11 12 12 10 9 8 8 7 7 7 6 6 5 6 6 5 5 4 4 5 6 6 5 5 5 4 3 3 3 3 3 2 1 1 1 1 2 2 5 5 5 5 5 6 7 6 7 7 6 5 6 5 5 5 5 6 5 5 4 4 4 3
12 12 11 10 10 9 8 7 7 7 6 6 5 6 5 5 5 5 5 5 6 6 5 5 4 5 4 3 3 3 3 3 0 0 1 2 4 4 5 6 6 7 5 6 6 5 6 7 7 6 5 5 5 5 5 5 5 4 4 3 4 3
12 13 11 11 9 9 9 8 7 7 6 5 5 6 6 6 6 5 5 6 6 5 5 5 4 4 5 4 4 3 4 2 1 1 2 4 4 5 5 6 5 8 8 6 7 6 5 7 6 6 5 5 5 5 5 5 5 4 3 5 5 4
14 14 12 11 10 8 8 8 7 7 7 5 6 6 5 5 5 6 6 6 5 5 4 4 4 4 5 4 4 3 3 2 1 2 3 4 4 5 6 6 5 3 8 7 7 8 6 6 6 6 5 5 4 5 5 5 4 4 4 4 4 3
13 13 11 11 9 8 8 8 7 7 6 6 6 6 5 5 6 6 6 6 5 5 5 5 5 5 4 4 3 4 3 3 3 3 5 5 4 3 6 8 7 4 4 9 7 8 7 6 6 6 5 5 4 5 4 4 4 3 5 4 3 3
13 12 11 10 9 8 8 6 6 6 5 6 6 5 5 6 6 6 6 6 6 5 5 5 5 5 5 4 4 3 3 3 4 5 6 5 5 4 5 6 9 6 4 3 8 7 8 7 7 5 5 4 4 3 3 3 3 5 4 4 4 2
13 13 11 9 8 8 7 7 7 4 5 6 6 5 5 6 6 6 6 5 5 5 5 5 5 5 5 4 4 3 3 3 4 5 6 6 5 6 7 7 7 9 7 6 5 6 8 9 7 7 5 5 4 3 4 3 3 4 3 3 4 2
12 12 11 10 10 10 9 7 6 8 8 6 6 5 6 5 5 6 6 5 5 5 5 5 5 5 5 4 4 3 4 3 4 5 6 6 6 6 6 7 7 5 10 8 3 3 4 8 10 6 5 5 5 3 3 3 4 3 3 2 1 3
11 12 12 13 11 10 8 8 7 7 4 5 6 7 6 5 6 4 5 5 5 5 5 6 6 5 5 5 5 4 4 5 4 5 5 5 5 6 6 7 7 5 1 7 6 6 7 6 2 5 6 3 2 3 2 3 3 2 1 1 0 1
13 13 12 13 12 11 8 7 7 5 7 4 1 3 5 5 4 5 4 4 5 5 6 5 5 5 5 4 5 5 5 5 5 6 7 6 6 7 7 8 7 9 5 2 3 3 4 1 5 3 3 6 2 2 1 1 1 1 0 0 0 1
13 13 11 12 12 10 10 7 6 7 5 5 5 3 3 4 4 5 5 4 3 5 5 5 5 5 5 5 6 6 5 5 5 5 7 7 6 6 6 5 4 6 9 6 3 5 2 1 5 9 3 1 3 4 1 3 2 1 1 1 1 1
13 13 11 11 12 11 11 9 7 6 6 6 4 5 5 3 5 5 5 4 5 4 5 5 5 5 6 6 5 6 6 5 5 4 6 7 6 7 7 7 7 7 8 9 6 3 4 1 6 1 8 4 2 0 3 2 3 1 0 0 2 2
12 11 12 12 12 12 12 11 10 10 9 6 7 8 10 9 6 6 6 4 3 4 4 4 4 5 6 6 6 6 6 6 6 5 5 6 6 5 6 6 8 8 6 4 9 6 5 3 6 1 0 2 6 3 5 2 3 2 0 1 3 2
13 12 12 12 13 12 12 12 13 12 11 10 9 6 5 6 7 5 4 5 4 3 3 5 4 5 5 6 7 6 6 6 6 6 5 6 6 7 7 7 5 5 7 6 4 7 8 6 2 3 1 0 2 1 7 7 4 3 2 3 1 3
12 12 11 12 14 13 13 12 12 11 10 9 9 9 7 6 4 5 6 4 4 3 3 4 5 5 6 6 6 6 6 6 6 5 6 6 6 5 5 3 5 4 4 6 7 8 6 6 8 5 1 2 3 3 4 2 4 7 6 5 3 1
13 12 12 14 14 13 13 13 12 11 10 7 8 8 7 6 6 5 6 4 4 3 3 3 3 5 5 6 6 6 6 6 6 4 4 5 5 5 7 7 6 5 6 5 5 4 7 7 5 6 4 2 4 3 2 2 3 3 3 4 1 4
14 12 12 14 14 13 12 12 12 11 12 8 7 6 7 8 7 6 7 6 5 5 5 5 4 4 5 4 6 6 6 6 6 5 4 4 4 3 4 5 7 7 6 6 4 4 7 7 6 4 5 6 4 2 2 2 1 3 3 2 6 6
14 12 13 14 14 14 12 12 12 12 13 12 10 10 8 8 7 6 7 6 6 5 5 5 4 3 4 5 5 5 6 6 6 5 6 7 6 5 4 5 6 5 6 7 6 5 2 3 4 4 4 7 7 8 7 6 6 4 3 2 3 2
13 13 13 13 14 14 12 11 10 12 13 12 12 10 11 10 9 9 8 8 6 6 5 5 5 5 4 4 5 5 5 5 5 4 4 3 4 4 4 3 5 6 5 4 4 5 4 5 4 4 3 4 6 5 4 5 6 6 7 5 6 5
15 13 14 14 15 14 12 12 11 12 11 10 11 11 11 10 10 9 8 8 8 8 6 6 6 7 5 6 6 6 6 6 5 5 6 6 4 4 5 4 5 5 6 6 7 6 6 6 7 7 6 2 4 4 4 1 5 6 2 5 7 5
15 14 13 13 14 14 13 12 11 11 11 10 11 11 10 10 10 8 9 10 10 10 9 9 8 7 7 6 5 6 6 5 4 4 5 6 6 5 4 5 4 6 5 4 4 5 5 4 3 3 5 6 3 4 3 3 4 6 6 6 4 8
15 14 15 15 13 14 12 11 11 10 10 9 10 9 9 8 10 9 8 9 8 7 8 7 8 6 6 6 6 5 5 6 5 6 5 5 3 4 4 5 4 5 5 4 5 6 5 6 7 5 4 5 5 4 4 3 4 4 5 6 8 7
18 17 16 15 13 14 12 11 11 11 11 10 9 8 7 7 8 9 9 9 8 7 6 7 5 6 6 7 7 6 5 5 4 5 5 5 4 4 4 5 4 4 5 3 6 5 5 5 6 5 5 4 6 4 3 3 3 4 3 4 5 5
15 14 15 16 14 13 12 12 12 11 11 11 11 11 10 9 9 7 7 7 8 7 7 6 7 6 7 5 6 7 6 6 5 5 4 4 4 3 4 4 5 5 5 4 5 6 5 6 5 5 5 4 6 5 3 3 3 4 4 4 4 5
Wind_Direction
158 154 153 155 156 158 168 167 169 169 171 172 174 177 175 179 178 180 176 176 174 151 142 153 162 158 165 161 162 164 169 173 177 178 181 190 203 254 323 342 346 347 359 13 20 42 41 28 36 100 103 97 91 78 80 80 77 72 65 55 59 69
157 158 157 157 161 163 172 167 167 171 172 176 178 178 181 171 176 167 175 171 128 143 132 143 147 168 159 172 170 170 174 178 181 191 194 201 227 253 310 318 324 331 342 356 20 48 43 20 61 107 99 95 84 81 76 80 78 73 66 59 68 73
163 160 159 165 163 167 172 159 166 170 174 174 179 176 156 165 130 167 152 136 148 137 146 169 174 181 157 175 178 181 184 184 187 194 195 210 233 250 275 286 299 312 313 346 47 58 61 54 75 100 89 87 86 82 83 78 75 68 61 57 58 72
164 162 164 168 164 172 169 158 163 170 172 163 175 152 149 140 158 170 159 150 150 156 159 164 196 191 185 174 185 189 191 192 193 194 200 210 273 300 287 317 310 301 346 25 51 71 83 67 95 93 87 84 88 83 76 71 68 61 53 55 61 69
165 165 167 168 170 176 167 164 170 171 165 165 155 142 145 144 171 179 168 164 155 162 160 166 218 242 155 164 180 221 196 171 168 194 198 100 290 279 321 306 308 310 306 302 318 89 95 91 101 98 91 91 88 84 81 73 71 67 60 61 71 74
165 169 171 172 175 175 167 174 175 174 164 167 153 152 153 159 175 186 182 172 153 157 160 171 206 239 171 162 183 195 171 140 173 204 209 180 228 216 255 258 259 271 271 248 220 121 116 115 115 104 96 90 90 88 84 77 70 71 63 63 73 76
169 168 171 173 172 177 177 179 177 173 168 169 157 162 175 170 181 187 190 178 164 182 180 178 197 204 193 174 184 185 181 182 188 201 220 192 228 228 231 236 245 255 262 258 128 131 127 112 120 112 102 97 94 93 88 79 71 69 61 64 76 78
172 170 170 175 173 182 179 180 180 182 178 178 169 180 188 181 173 190 194 191 182 183 184 183 199 200 194 177 193 186 176 184 193 211 217 201 214 227 223 222 230 250 251 213 96 98 108 116 112 111 108 102 100 94 89 85 79 70 65 64 70 79
173 173 172 172 175 183 179 179 182 189 180 188 180 190 192 172 176 192 200 192 184 188 192 190 193 201 166 190 192 178 176 193 193 206 189 213 204 214 216 200 200 232 107 93 93 94 110 112 110 111 111 110 106 101 96 91 85 81 71 68 71 77
175 173 172 171 177 180 181 181 186 192 181 187 189 192 184 175 187 184 196 197 198 186 190 186 189 180 172 185 187 170 177 198 198 190 183 201 210 197 201 143 128 115 80 92 100 114 114 116 114 109 110 114 108 105 101 100 95 87 76 66 68 76
176 174 172 177 175 180 180 185 189 190 179 191 187 186 181 182 184 190 195 195 197 190 184 183 181 177 176 172 175 154 186 181 212 209 186 210 191 201 185 160 139 116 104 104 102 113 121 115 113 112 113 112 111 107 103 96 92 85 78 69 63 69
176 175 174 178 175 178 182 186 187 186 192 193 180 186 186 183 191 200 194 192 189 189 181 189 183 172 169 164 164 177 184 177 225 213 189 197 198 175 128 90 111 106 105 97 96 95 103 114 109 111 113 109 110 109 103 98 95 92 84 71 67 59
176 176 177 176 176 177 180 183 182 191 197 189 183 182 191 190 195 201 187 182 185 183 182 182 188 169 166 165 160 160 193 210 220 212 199 199 172 125 100 99 90 98 97 96 95 92 93 96 106 107 110 112 114 106 109 106 96 87 82 79 68 63
179 179 179 175 173 176 181 180 182 191 194 187 181 185 196 182 191 193 179 181 181 181 176 186 168 156 147 156 158 175 191 216 228 219 172 157 121 99 102 107 107 99 96 99 98 101 106 99 92 97 102 110 106 114 113 99 92 91 93 85 82 75
178 180 179 177 174 177 178 178 181 189 195 183 176 190 188 178 186 184 176 183 181 179 173 174 166 153 154 151 157 175 186 207 173 115 89 93 100 80 117 119 121 102 90 88 90 84 100 105 111 107 106 110 111 107 94 102 100 101 97 100 83 78
176 178 181 178 175 176 176 178 182 190 193 179 174 188 188 181 181 176 181 180 183 177 165 163 154 149 149 151 161 176 192 183 142 70 75 96 105 107 111 108 114 124 109 96 101 82 80 100 100 100 98 101 108 106 108 104 108 102 112 99 93 85
177 179 178 177 174 174 173 178 184 191 193 173 178 192 183 168 172 178 183 185 181 175 151 152 152 149 144 151 160 180 191 162 114 90 97 104 102 125 122 113 89 94 122 121 109 104 85 93 98 93 95 96 94 104 101 110 111 117 106 100 105 104
178 177 176 175 174 171 175 178 183 191 189 177 189 190 171 163 177 182 181 186 181 166 151 153 155 150 146 160 169 183 167 141 111 101 103 104 104 111 122 123 105 67 109 126 122 118 111 97 92 91 81 80 78 84 104 113 118 112 114 115 105 116
175 176 175 172 167 168 173 177 179 182 182 181 193 174 164 169 178 178 187 180 176 161 156 158 157 156 156 163 170 183 155 143 121 124 122 116 109 112 111 117 122 103 57 61 126 125 122 114 98 88 82 65 74 82 93 99 103 114 121 137 144 139
177 175 171 166 164 169 171 175 173 173 182 187 186 165 173 175 171 181 182 174 171 158 159 160 160 165 160 158 169 176 145 139 133 135 127 125 128 135 131 119 121 122 107 83 63 115 122 111 89 81 79 66 58 81 86 102 106 117 123 129 129 124
178 174 169 170 173 173 176 170 166 186 191 175 177 169 170 173 178 179 171 173 169 159 162 158 158 165 169 163 162 142 130 141 144 141 135 143 144 134 133 132 125 118 128 117 96 118 122 115 113 74 53 58 51 35 66 90 97 108 118 127 126 143
172 175 177 175 171 173 178 177 170 181 154 157 168 171 173 175 178 167 160 167 169 163 166 165 160 169 167 163 150 146 150 152 153 138 123 127 127 127 123 127 129 94 51 132 146 167 171 118 52 143 136 105 33 15 53 58 65 42 44 51 54 146
176 176 180 174 169 173 166 157 157 159 159 140 104 158 168 164 156 157 158 164 167 168 167 169 161 163 165 165 151 145 154 149 150 134 120 121 125 130 142 147 153 141 126 41 98 182 181 56 139 113 102 93 144 80 337 13 1 36 7 243 36 202
179 179 176 177 170 157 148 139 140 144 139 140 160 131 121 138 138 136 157 164 175 173 172 167 163 157 158 158 148 150 144 146 147 141 136 134 137 137 143 148 145 151 142 134 150 195 214 176 134 138 139 148 192 123 123 261 208 267 329 298 344 263
177 178 175 172 162 147 136 126 121 110 114 93 81 127 137 152 166 167 154 163 187 179 171 165 159 154 153 153 146 145 149 148 139 140 135 137 149 158 164 166 162 156 169 153 172 177 216 154 185 139 137 105 53 51 212 221 119 287 353 196 278 290
175 174 173 170 159 154 154 147 147 152 163 165 163 168 180 165 151 170 177 179 171 175 166 153 151 148 147 142 144 147 147 144 140 137 140 143 142 137 155 164 180 170 168 184 157 160 186 224 199 178 187 140 167 174 175 207 99 222 330 232 296 296
176 175 170 165 162 158 157 160 165 171 174 177 171 184 168 167 172 173 165 174 168 158 159 148 142 138 138 138 136 141 142 138 135 135 136 133 146 163 170 178 172 171 172 156 146 166 180 192 144 272 247 125 100 108 141 136 193 93 169 302 309 267
177 174 172 164 168 167 164 164 164 171 174 174 175 169 167 163 158 158 162 167 152 156 143 140 134 131 135 135 134 131 129 130 130 141 144 151 148 146 140 150 171 165 154 168 171 167 182 182 168 206 129 81 73 88 111 87 145 163 155 165 241 287
177 173 173 170 170 172 167 167 167 166 171 173 161 157 156 157 161 161 157 148 154 146 134 128 131 135 135 135 134 134 131 126 125 128 130 132 134 149 150 149 155 156 174 185 186 179 161 189 184 177 118 64 78 73 68 57 105 90 133 128 234 189
178 177 173 173 171 171 168 165 167 170 164 160 149 143 156 162 164 162 160 161 153 147 141 123 121 130 125 126 128 128 123 126 131 138 123 115 114 122 139 146 163 173 174 178 191 174 186 179 186 173 165 150 128 101 75 75 101 90 55 88 163 195
180 175 173 174 171 171 171 172 170 166 165 163 159 153 158 166 156 157 161 161 161 155 146 142 133 128 129 129 124 121 124 139 144 145 143 139 150 160 177 155 154 157 171 175 174 168 133 154 157 152 155 165 170 171 177 174 194 187 140 133 74 115
180 177 174 173 172 171 171 175 169 166 168 168 162 165 169 170 172 170 166 162 155 143 145 141 141 135 133 135 128 124 135 138 133 127 130 123 133 153 161 158 146 153 160 156 151 155 157 151 152 139 157 173 177 167 147 164 183 166 164 184 151 165
182 176 176 174 175 172 172 176 171 170 168 165 168 169 172 170 174 172 166 160 161 163 154 151 165 151 158 150 139 136 148 143 134 150 145 143 155 158 158 165 156 144 147 159 170 163 164 173 164 164 169 145 140 151 171 171 137 147 106 129 137 113
181 177 174 175 175 173 177 173 170 170 169 165 170 172 174 172 175 173 171 170 172 169 168 167 163 168 162 152 150 154 152 150 150 150 155 149 159 163 161 154 155 148 151 151 139 148 141 136 123 119 131 131 131 132 132 127 134 134 145 128 143 148
177 179 176 177 175 174 172 172 172 172 168 167 168 173 175 173 171 170 173 172 174 164 161 164 163 153 153 152 150 147 151 149 153 156 142 139 175 158 152 135 142 138 125 130 129 127 131 135 132 132 123 130 127 104 120 130 132 150 147 158 153 161
181 178 177 174 177 174 171 169 169 171 171 166 167 168 166 169 175 172 172 170 160 160 156 148 147 145 157 153 152 152 152 147 149 152 162 152 164 156 148 132 127 131 125 120 127 124 132 123 124 127 122 119 105 113 114 121 121 130 141 150 141 146
181 178 178 178 173 171 168 168 173 170 166 169 171 173 172 169 168 166 163 162 162 158 147 152 151 154 150 153 152 155 151 150 157 156 152 155 155 147 136 129 128 127 123 120 120 131 130 122 124 124 113 121 122 128 123 115 99 104 108 96 115 147